Starlink 33886

operational
NORAD ID: 63681 Int'l Des: 2025-085 Owner: SPXS Country: US Constellation: starlink
LEOCIRCULAR

Über Starlink 33886

Beschreibung wird geladen...

Live-Position

3D-Globus wird geladen...

Nächste Überflüge

Höhenverlauf

Altitude vs Time

uPlot chart will show altitude changes over time

Zweizeiliger Elementsatz

1 63681U 25085T 25304.33336806 .00020612 00000-0 75669-3 0 9997
2 63681 43.0027 40.9510 0001206 266.7240 46.7085 15.27569307 5793
Epoch: 31. Okt. 2025 • Age: 11 hours

Aktueller Status

Höhe 485.8 km
Geschwindigkeit 7.63 km/s
Subsatellitenpunkt 37.82°N, 121.79°E
Startdatum 28. Apr. 2025
Alter 0.5 years
Typ internet

Technische Details

Klassifizierung Payload
Masse 575.00 kg
Trockenmasse 530.00 kg
Gesamtmasse 575.00 kg
Länge 0.30 m
Durchmesser 4.10 m
Spannweite 29.00 m
Form Box + pan
Hersteller SPXS
Bus-Typ Starlink V2MO
Phasenstatus In Orbit
Besitzer/Staat SPXS/US

Große Konstellationen

Loading constellations...